Amis Wisdom II — 3FGI2 — position and weather

sailwx.info

Track history (hours):
 
Tides and Currents Weather Stations Pressure Air Temp Water Temp Dewpoint Dewpoint Depression Visibility Wind Speed Wind Dir Waves Ship Positions

Amis Wisdom II

Last reported at 2014-Oct-29 23:00 UTC. Time now 2014-Oct-31 23:50 UTC.
Position N 54°18' W 171°06'.

Length 200 m; draft 12.6 m.

Type: Cargo ship. MMSI: 357086000.

Wind from 140 at 30 knots

Waves 2.5 meters (8 feet)

Barometer 1011.0 mb
Air temperature 7.0 ° C
Visibility: greater than 5.4 NM

Date/timePositionNaut miles runAvg speedWind from/ knotsBaromVisibWave heightAir tempDewpointWater temp
2014-Oct-29 23:00N 54°18' W 171°06'285 6.3 140 / 301011.0 5.4 2.5 7.0
2014-Oct-28 02:00N 54°06' W 163°00'   270 / 38992.0 5.4 2.5 6.0
2014-Oct-22 01:27N 48°58' W 126°53'12 9.2
2014-Oct-22 00:11N 48°54' W 126°36'7 8.5
2014-Oct-21 23:20N 48°50' W 126°27'6 8.0
2014-Oct-21 22:33N 48°47' W 126°18'8 7.7
2014-Oct-21 21:33N 48°44' W 126°08'8 8.0
2014-Oct-21 20:33N 48°41' W 125°57'9 9.4
2014-Oct-21 19:33N 48°37' W 125°44'9 9.4
2014-Oct-21 18:33N 48°33' W 125°31'9 8.9
2014-Oct-21 17:33N 48°31' W 125°18'9 9.4
2014-Oct-21 16:33N 48°31' W 125°04'19 9.4
2014-Oct-21 14:33N 48°28' W 124°36'1110.8
2014-Oct-21 13:33N 48°24' W 124°21'1111.5
2014-Oct-21 12:33N 48°19' W 124°05'1111.0
2014-Oct-21 11:33N 48°17' W 123°48'1010.2
2014-Oct-21 10:33N 48°15' W 123°33'9 8.9
2014-Oct-21 09:33N 48°22' W 123°25'8 8.4
2014-Oct-21 08:33N 48°25' W 123°12'1111.2
2014-Oct-21 07:33N 48°36' W 123°14'9 9.2
2014-Oct-21 06:33N 48°44' W 123°08'8 7.6
2014-Oct-21 05:33N 48°52' W 123°05'1212.3
2014-Oct-21 04:33N 49°00' W 123°19'1110.6
2014-Oct-21 03:33N 49°10' W 123°22'1010.1
2014-Oct-21 02:33N 49°19' W 123°14'7 6.7
2014-Oct-21 01:34N 49°17' W 123°04'0 0.1
2014-Oct-21 00:34N 49°17' W 123°04'0 0.0
2014-Oct-20 23:33N 49°17' W 123°04'0 0.0
2014-Oct-20 22:30N 49°17' W 123°04'0 0.0
2014-Oct-20 21:33N 49°17' W 123°04'0 0.0
2014-Oct-20 20:33N 49°17' W 123°04'0 0.0
2014-Oct-20 19:33N 49°17' W 123°04'0 0.0
2014-Oct-20 18:30N 49°17' W 123°04'0 0.0
2014-Oct-20 17:33N 49°17' W 123°04'0 0.0
2014-Oct-20 16:33N 49°17' W 123°04'0 0.0
2014-Oct-20 15:33N 49°17' W 123°04'0 0.0
2014-Oct-20 14:33N 49°17' W 123°04'0 0.0
2014-Oct-20 13:33N 49°17' W 123°04'0 0.0
2014-Oct-20 12:33N 49°17' W 123°04'0 0.0
2014-Oct-20 11:33N 49°17' W 123°04'0 0.0
2014-Oct-20 10:33N 49°17' W 123°04'0 0.0
2014-Oct-20 09:33N 49°17' W 123°04'0 0.0
2014-Oct-20 08:33N 49°17' W 123°04'0 0.0
2014-Oct-20 07:33N 49°17' W 123°04'0 0.0
2014-Oct-20 06:33N 49°17' W 123°04'0 0.0
2014-Oct-20 05:33N 49°17' W 123°04'0 0.0
2014-Oct-20 04:33N 49°17' W 123°04'0 0.0
2014-Oct-20 03:33N 49°17' W 123°04'0 0.0
2014-Oct-20 02:33N 49°17' W 123°04'0 0.0
2014-Oct-20 01:33N 49°17' W 123°04'0 0.0
2014-Oct-20 00:33N 49°17' W 123°04'0 0.0
2014-Oct-19 23:33N 49°17' W 123°04'  
Track history (hours):
 
Tides and Currents Weather Stations Pressure Air Temp Water Temp Dewpoint Dewpoint Depression Visibility Wind Speed Wind Dir Waves Ship Positions

Amis Wisdom II

Last reported at 2014-Oct-29 23:00 UTC. Time now 2014-Oct-31 23:50 UTC.
Position N 54°18' W 171°06'.

Length 200 m; draft 12.6 m.

Type: Cargo ship. MMSI: 357086000.

Wind from 140 at 30 knots

Waves 2.5 meters (8 feet)

Barometer 1011.0 mb
Air temperature 7.0 ° C
Visibility: greater than 5.4 NM

Date/timePositionNaut miles runAvg speedWind from/ knotsBaromVisibWave heightAir tempDewpointWater temp
2014-Oct-29 23:00N 54°18' W 171°06'285 6.3 140 / 301011.0 5.4 2.5 7.0
2014-Oct-28 02:00N 54°06' W 163°00'   270 / 38992.0 5.4 2.5 6.0
2014-Oct-22 01:27N 48°58' W 126°53'12 9.2
2014-Oct-22 00:11N 48°54' W 126°36'7 8.5
2014-Oct-21 23:20N 48°50' W 126°27'6 8.0
2014-Oct-21 22:33N 48°47' W 126°18'8 7.7
2014-Oct-21 21:33N 48°44' W 126°08'8 8.0
2014-Oct-21 20:33N 48°41' W 125°57'9 9.4
2014-Oct-21 19:33N 48°37' W 125°44'9 9.4
2014-Oct-21 18:33N 48°33' W 125°31'9 8.9
2014-Oct-21 17:33N 48°31' W 125°18'9 9.4
2014-Oct-21 16:33N 48°31' W 125°04'19 9.4
2014-Oct-21 14:33N 48°28' W 124°36'1110.8
2014-Oct-21 13:33N 48°24' W 124°21'1111.5
2014-Oct-21 12:33N 48°19' W 124°05'1111.0
2014-Oct-21 11:33N 48°17' W 123°48'1010.2
2014-Oct-21 10:33N 48°15' W 123°33'9 8.9
2014-Oct-21 09:33N 48°22' W 123°25'8 8.4
2014-Oct-21 08:33N 48°25' W 123°12'1111.2
2014-Oct-21 07:33N 48°36' W 123°14'9 9.2
2014-Oct-21 06:33N 48°44' W 123°08'8 7.6
2014-Oct-21 05:33N 48°52' W 123°05'1212.3
2014-Oct-21 04:33N 49°00' W 123°19'1110.6
2014-Oct-21 03:33N 49°10' W 123°22'1010.1
2014-Oct-21 02:33N 49°19' W 123°14'7 6.7
2014-Oct-21 01:34N 49°17' W 123°04'0 0.1
2014-Oct-21 00:34N 49°17' W 123°04'0 0.0
2014-Oct-20 23:33N 49°17' W 123°04'0 0.0
2014-Oct-20 22:30N 49°17' W 123°04'0 0.0
2014-Oct-20 21:33N 49°17' W 123°04'0 0.0
2014-Oct-20 20:33N 49°17' W 123°04'0 0.0
2014-Oct-20 19:33N 49°17' W 123°04'0 0.0
2014-Oct-20 18:30N 49°17' W 123°04'0 0.0
2014-Oct-20 17:33N 49°17' W 123°04'0 0.0
2014-Oct-20 16:33N 49°17' W 123°04'0 0.0
2014-Oct-20 15:33N 49°17' W 123°04'0 0.0
2014-Oct-20 14:33N 49°17' W 123°04'0 0.0
2014-Oct-20 13:33N 49°17' W 123°04'0 0.0
2014-Oct-20 12:33N 49°17' W 123°04'0 0.0
2014-Oct-20 11:33N 49°17' W 123°04'0 0.0
2014-Oct-20 10:33N 49°17' W 123°04'0 0.0
2014-Oct-20 09:33N 49°17' W 123°04'0 0.0
2014-Oct-20 08:33N 49°17' W 123°04'0 0.0
2014-Oct-20 07:33N 49°17' W 123°04'0 0.0
2014-Oct-20 06:33N 49°17' W 123°04'0 0.0
2014-Oct-20 05:33N 49°17' W 123°04'0 0.0
2014-Oct-20 04:33N 49°17' W 123°04'0 0.0
2014-Oct-20 03:33N 49°17' W 123°04'0 0.0
2014-Oct-20 02:33N 49°17' W 123°04'0 0.0
2014-Oct-20 01:33N 49°17' W 123°04'0 0.0
2014-Oct-20 00:33N 49°17' W 123°04'0 0.0
2014-Oct-19 23:33N 49°17' W 123°04'  

Dump ship's entire track history